Kings Park Real Estate, NSW, 2148 Blacktown

Thinking about buying in Kings Park? Now could not be a better time, with a whopping 2106 properties either residential or commercial there's certainly plenty to choose from.

The average property price for this area is $750,000 with prices in this suburb ranging from $539,000 to $918,000.

Distance to the coast is 29 Km.

Kings Park Real Estate Market Outlook

Good balance between supply and demand ensures a range of affordable options within budget limits. Recent increases in listings may provide buying opportunities. Low average incomes in Kings Park is reflected in smaller and lower quality accommodation. Over time this may change providsing long-term returns but in the short to medium term, prices are likely to be less than state averages. A mix of professions and above average income earners in Kings Park provides good demand. The lower than average housing turnover of these people also means fewer regular listings leading to periodic large price increases. Lower than average population density constrains growth in Kings Park to an extent. However, where buyers are willing to compromise on housing and lifestyle choice, there are affordable options. Higher than average industry presence in the wider area offering local employment yet with not a large negative impact on local amenity, provides good demand and price growth.

About

For Sale

Harcourts 8 SERAM PL, KINGS PARK, NSW, 2148 3 2 2 Price Guide $1,130,000 - $1,160,000
McGrath 138 MADAGASCAR DR, KINGS PARK, NSW, 2148 5 2 2 Auction Guide $1,400,000

More

Local Schools


Movelle Primary School

Resurrection School

(While the above schools are located with the suburb of Kings Park there may also be nearby schools whose catchments cover this suburb)

Local Crime Stats


Average Local Climate by month


(mm)
RAIN
Min (°C)
TEMP
Max (°C)
TEMP
Min (%)
HUMIDITY
Max (%)
HUMIDITY
(m/sec)
WIND
(MJ/sq m)
SOLAR
Jan2.518.631.642.294.32.922.2
Feb3.518.029.746.295.12.718.8
Mar4.615.92749.996.02.415.5
Apr2.212.224.647.496.72.014.0
May1.17.221.146.996.71.711.4
Jun2.35.818.054.2971.99.2
Jul0.63.718.643.994.72.210.7
Aug1.14.320.037.892.82.613.2
Sept1.17.623.234.593.22.917.3
Oct1.511.625.338.794.12.819.7
Nov2.314.828.239.994.12.922.6
Dec2.616.629.839.994.3323.7

source: Australian Government Bureau of Meteorology

Recently Sold

04-05-2022 $1,160,000 6 BATAAN PL KINGS PARK 2148
27-04-2022 $1,225,000 55 WELLESLEY CRES KINGS PARK 2148
21-04-2022 $780,000 3 RENNELL ST KINGS PARK 2148
19-04-2022 $1,040,000 7 DONOHUE ST KINGS PARK 2148
14-04-2022 $1,100,000 6 ANDAMAN ST KINGS PARK 2148
14-04-2022 $230,000 84 FAULKLAND CRES KINGS PARK 2148
12-04-2022 $948,000 5 CANTON ST KINGS PARK 2148
11-04-2022 $1,270,000 4 NICOBAR ST KINGS PARK 2148
01-04-2022 $1,000,000 41 FAULKLAND CRES KINGS PARK 2148
28-02-2022 $1,218,000 14 BLACKETT ST KINGS PARK 2148
28-02-2022 $950,000 65 FAULKLAND CRES KINGS PARK 2148
17-02-2022 $68,000,000 57 TATTERSALL RD KINGS PARK 2148
15-02-2022 $998,500 38 FAULKLAND CRES KINGS PARK 2148
31-01-2022 $970,000 130 MADAGASCAR DR KINGS PARK 2148
28-01-2022 $885,000 8 SERAM PL KINGS PARK 2148
27-01-2022 $1,160,000 94 HARVEY RD KINGS PARK 2148
25-01-2022 $1,600,000 29 CAMORTA CL KINGS PARK 2148
25-01-2022 $870,000 14 STUTT ST KINGS PARK 2148
24-01-2022 $990,000 13 / 24 GARLING RD KINGS PARK 2148
21-01-2022 $695,000 8 / 18 HAWKER ST KINGS PARK 2148
18-01-2022 $660,000 3 / 81 DONOHUE ST KINGS PARK 2148
18-01-2022 $1,052,000 37 WELLESLEY CRES KINGS PARK 2148
22-12-2021 $1,042,000 5 RENNELL ST KINGS PARK 2148
21-12-2021 $735,000 5 / 11 ROMFORD RD KINGS PARK 2148
20-12-2021 $1,320,000 4 / 24 GARLING RD KINGS PARK 2148
17-12-2021 $1,020,000 42 FAULKLAND CRES KINGS PARK 2148
17-12-2021 $1,105,000 35 FAULKLAND CRES KINGS PARK 2148
16-12-2021 $3,700,000 80 TATTERSALL RD KINGS PARK 2148
14-12-2021 $1,010,000 129 MADAGASCAR DR KINGS PARK 2148
10-12-2021 $925,000 8 CAMORTA CL KINGS PARK 2148
08-12-2021 $1,100,000 17 ANDAMAN ST KINGS PARK 2148
07-12-2021 $700,000 7 / 48 COBHAM ST KINGS PARK 2148
03-12-2021 $825,000 82 MADAGASCAR DR KINGS PARK 2148
29-11-2021 $756,000 3 HAWKER ST KINGS PARK 2148
26-11-2021 $2,170,000 16 BINNEY RD KINGS PARK 2148
25-11-2021 $1,280,000 11 DONOHUE ST KINGS PARK 2148
22-11-2021 $1,200,000 10 BERMUDA PL KINGS PARK 2148
16-11-2021 $1,200,000 2 TIMOR PL KINGS PARK 2148
10-11-2021 $1,090,000 13 COBHAM ST KINGS PARK 2148
03-11-2021 $1,068,000 5 GUAM PL KINGS PARK 2148
27-10-2021 $1,177,500 9 BATAAN PL KINGS PARK 2148
20-10-2021 $1,025,000 246 MADAGASCAR DR KINGS PARK 2148
12-10-2021 $1,000,000 259 MADAGASCAR DR KINGS PARK 2148
12-10-2021 $650,000 16 STUTT ST KINGS PARK 2148
12-10-2021 $1,000,000 259 MADAGASCAR DR KINGS PARK 2148
12-10-2021 $650,000 16 STUTT ST KINGS PARK 2148
11-10-2021 $1,100,000 182 MADAGASCAR DR KINGS PARK 2148
11-10-2021 $960,000 30 PALAWAN AVE KINGS PARK 2148
11-10-2021 $1,030,000 164 MADAGASCAR DR KINGS PARK 2148
11-10-2021 $1,100,000 182 MADAGASCAR DR KINGS PARK 2148

Residz covers 12m+ Australian properties and brings together a wealth of data to give you a better understanding of an area. From crime and schools to bush fire, flood risk and more. Begin your search for properties for sale or learn more about where you currently reside. Residz is an exciting next-generation Real Estate platform getting better by the day!